Location: Carri�res
(48.9069°N, 2.1792°E)
Time: 01:42:19
(UTC+00:00)

Envisat - Visible Passes

Search period start: 08 December 2021 00:00
Search period end: 18 December 2021 00:00
Orbit: 764 x 766 km, 98.2° (Epoch: 07 December)

Date Brightness Start Highest point End Pass type
(mag) Time Alt. Az. Time Alt. Az. Time Alt. Az.
08 Dec 3.4 04:44:03 10° NNE 04:49:06 61° E 04:54:07 10° S visible
08 Dec 4.1 06:23:49 10° N 06:27:43 23° WNW 06:31:36 10° WSW visible
08 Dec 6.4 17:46:55 10° W 17:47:30 10° W 17:48:04 10° WNW visible
09 Dec 4.8 04:07:34 10° NNE 04:12:01 30° E 04:16:27 10° SSE visible
09 Dec 3.3 05:46:24 10° N 05:51:10 42° WNW 05:55:55 10° SW visible
09 Dec 5.7 17:06:15 10° SW 17:10:06 22° W 17:14:00 10° NW visible
10 Dec 5.8 03:31:54 10° NE 03:34:45 15° E 03:37:34 10° ESE visible
10 Dec 2.9 05:09:19 10° NNE 05:14:26 83° WNW 05:19:31 10° SSW visible
10 Dec 4.5 06:49:54 10° NNW 06:52:41 15° NW 06:55:29 10° W visible
10 Dec 4.4 16:28:08 10° S 16:32:56 43° W 16:37:48 10° NNW visible
11 Dec 3.9 04:32:33 10° NNE 04:37:29 49° E 04:42:24 10° S visible
11 Dec 3.8 06:12:03 10° N 06:16:16 27° WNW 06:20:29 10° WSW visible
11 Dec 6.1 17:33:25 10° WSW 17:35:45 13° W 17:38:06 10° WNW visible
12 Dec 5.1 03:56:15 10° NE 04:00:22 24° E 04:04:28 10° SE visible
12 Dec 3.1 05:34:44 10° N 05:39:40 52° WNW 05:44:34 10° SW visible
12 Dec 5.3 16:54:10 10° SSW 16:58:26 27° W 17:02:43 10° NW visible
13 Dec 6.0 03:21:14 10° ENE 03:23:01 12° E 03:24:48 10° ESE visible
13 Dec 3.0 04:57:45 10° NNE 05:02:52 80° ESE 05:07:57 10° SSW visible
13 Dec 4.3 06:37:56 10° NNW 06:41:17 18° WNW 06:44:37 10° W visible
14 Dec 4.3 04:21:06 10° NNE 04:25:53 39° E 04:30:37 10° SSE visible
14 Dec 3.6 06:00:18 10° N 06:04:49 33° WNW 06:09:18 10° SW visible
14 Dec 5.9 17:20:52 10° SW 17:24:01 16° W 17:27:13 10° NW visible
15 Dec 5.4 03:45:01 10° NE 03:48:41 20° E 03:52:20 10° SE visible
15 Dec 2.9 05:23:06 10° N 05:28:09 64° WNW 05:33:09 10° SSW visible
15 Dec 5.0 16:42:14 10° SSW 16:46:47 33° W 16:51:22 10° NNW visible
16 Dec 3.3 04:46:13 10° NNE 04:51:17 65° ESE 04:56:20 10° S visible
16 Dec 4.1 06:26:05 10° NNW 06:29:52 21° WNW 06:33:38 10° WSW visible
17 Dec 4.6 04:09:41 10° NNE 04:14:14 32° E 04:18:45 10° SSE visible
17 Dec 3.4 05:48:36 10° N 05:53:20 40° WNW 05:58:02 10° SW visible
17 Dec 5.8 17:08:36 10° SW 17:12:19 20° W 17:16:05 10° NW visible
